ROMMA est une association bénévole à but non lucratif. Votre soutien est indispensable : ADHERER à ROMMA ou FAIRE un DON

Lyon - (69, Rhône)

Plaine lyonnaise (169 m)   Longitude: 04° 49' 55" E   Latitude: 45° 43' 50" N Station partenaire n°124
 

Détail journalier du     <<     >>

Température Precipitation Humidité Pression Vent Dir Rafale Dir. rafale Ensol.
Heure (°C) (mm) (%) (hPa) (km/h) (km/h) (min)
01:00 13.608710132N6N0
02:00 13.208810132N6N0
03:00 13.009010133N5N0
04:00 12.309110122N5N0
05:00 11.909210122N5N0
06:00 11.609210112N5N0
07:00 11.109310112N5N0
08:00 11.109310112N6N0
09:00 12.509110113N6N0
10:00 15.808010103SO8SO50
11:00 18.706810113S10SO60
12:00 21.205710105S13S60
13:00 22.905210096S14S50
14:00 24.904610088SE21S60
15:00 26.404310076SE26SE60
16:00 26.704110064S11S10
17:00 24.42.37210063O10O10
18:00 19.328210098N35N0
19:00 17.39.98910086N27N0
20:00 17.009110083N10N0
21:00 16.90.59110084N8N0
22:00 16.50.39210082N8N0
23:00 16.209210093N8N0
minuit 15.909210093N8N0

Graphique du 01-10-2019

 

Serveur OMMA